New River MCAS, NC

10:29 PM EST on December 10, 2017 (GMT -0500)
New River Marine Corps Air Station

Weather History for KNCA - June, 2012

Change the Weather History Date:

Tuesday, June 19, 2012

  Actual Average Record
Temperature  
Mean Temperature 74 °F -  
Max Temperature 87 °F 84 °F 95 °F (2011)
Min Temperature 63 °F 66 °F 57 °F (2008)
Cooling Degree Days 10    
Growing Degree Days 24 (Base 50)    
Moisture  
Dew Point 64 °F    
Average Humidity 72    
Maximum Humidity 97    
Minimum Humidity 48    
Precipitation  
Precipitation 0.00 in - - ()
Sea Level Pressure  
Sea Level Pressure 30.17 in    
Wind  
Wind Speed 3 mph (South)    
Max Wind Speed 10 mph    
Max Gust Speed -    
Visibility 10 miles    
Events      
Averages and records for this station are not official NWS values.
T = Trace of Precipitation, MM = Missing Value Source: NWS Daily Summary

Daily Weather History Graph

Daily Weather History Graph

Search for Another Location

Airport or City:

Trip Planner

Search our weather history database for the weather conditions in past years. The results will help you decide how hot, cold, wet, or windy it might be!

Date:

Astronomy

Jun. 19, 2012 Rise Set
Actual Time 5:56 AM EDT 8:25 PM EDT
Civil Twilight 5:27 AM EDT 8:55 PM EDT
Nautical Twilight 4:50 AM EDT 9:31 PM EDT
Astronomical Twilight 4:10 AM EDT 10:12 PM EDT
Moon 5:57 AM EDT (6/19) 8:30 PM EDT (6/19)
Length of Visible Light 15h 28m
Length of Day
14h 29m
New Moon, 0% of the Moon is Illuminated
Jun 19
New Moon
Jun 26
First Quarter
Jul 3
Full
Jul 10
Last Quarter
Jul 19
New

Hourly Weather History & Observations

Time (EDT) Temp. Heat Index Dew Point Humidity Pressure Visibility Wind Dir Wind Speed Gust Speed Precip Events Conditions
12:56 AM 66.0 °F - 63.0 °F 90% 30.15 in 10.0 mi Calm Calm - N/A   Clear
1:56 AM 64.9 °F - 64.0 °F 97% 30.16 in 10.0 mi Calm Calm - N/A   Partly Cloudy
2:56 AM 64.9 °F - 63.0 °F 93% 30.16 in 10.0 mi Calm Calm - N/A   Clear
3:56 AM 64.9 °F - 63.0 °F 93% 30.16 in 10.0 mi Calm Calm - N/A   Clear
4:56 AM 63.0 °F - 62.1 °F 97% 30.16 in 6.0 mi Calm Calm - N/A   Partly Cloudy
5:56 AM 64.9 °F - 63.0 °F 93% 30.17 in 10.0 mi Calm Calm - N/A   Overcast
6:56 AM 64.9 °F - 62.1 °F 90% 30.18 in 10.0 mi Calm Calm - N/A   Clear
7:56 AM 70.0 °F - 64.9 °F 84% 30.19 in 10.0 mi Calm Calm - N/A   Partly Cloudy
8:56 AM 75.9 °F - 64.9 °F 69% 30.19 in 10.0 mi WNW 3.5 mph - N/A   Clear
9:56 AM 80.1 °F 81.5 °F 63.0 °F 56% 30.19 in 10.0 mi West 3.5 mph - N/A   Clear
11:56 AM 82.9 °F 84.4 °F 64.0 °F 53% 30.19 in 10.0 mi ESE 5.8 mph - N/A   Clear
12:56 PM 86.0 °F 87.3 °F 64.0 °F 48% 30.18 in 10.0 mi East 6.9 mph - N/A   Scattered Clouds
1:56 PM 86.0 °F 87.6 °F 64.9 °F 49% 30.17 in 10.0 mi East 4.6 mph - N/A   Scattered Clouds
2:56 PM 86.0 °F 88.8 °F 66.9 °F 53% 30.16 in 10.0 mi SSE 10.4 mph - N/A   Clear
3:56 PM 84.9 °F 86.6 °F 64.9 °F 51% 30.15 in 10.0 mi South 10.4 mph - N/A   Partly Cloudy
4:56 PM 84.9 °F 86.1 °F 64.0 °F 49% 30.14 in 10.0 mi South 9.2 mph - N/A   Clear
5:56 PM 82.9 °F 84.0 °F 63.0 °F 51% 30.14 in 10.0 mi South 9.2 mph - N/A   Clear
6:56 PM 80.1 °F 81.9 °F 64.9 °F 60% 30.14 in 10.0 mi South 9.2 mph - N/A   Clear
7:56 PM 77.0 °F - 63.0 °F 62% 30.15 in 10.0 mi South 5.8 mph - N/A   Clear
8:56 PM 75.0 °F - 66.0 °F 73% 30.16 in 10.0 mi South 3.5 mph - N/A   Clear
9:56 PM 73.9 °F - 66.9 °F 79% 30.18 in 10.0 mi South 4.6 mph - N/A   Clear
10:56 PM 73.0 °F - 66.9 °F 81% 30.19 in 10.0 mi SSW 3.5 mph - N/A   Partly Cloudy
11:56 PM 73.0 °F - 66.9 °F 81% 30.18 in 10.0 mi Calm Calm - N/A   Clear